Flag for U.S.A. Weather past 2 weeks in Arlington, Texas, U.S.A.

Now
85 °F

Scattered clouds.


Feels Like: 89 °F
Forecast: 72 / 87 °F
Wind: 5 mph from North

Location: Arlington Municipal Airport

Current Time: Sep 16, 2014 at 1:39:21 PM

Latest Report: Sep 16, 2014 at 12:53 PM


Visibility: 10 mi

Pressure: 30.06 "Hg

Humidity: 59%

Dew point: 69 °F

Location of ArlingtonLocation

Historic Weather in Arlington — Graph

°F

Arlington temperature yesterday

Maximum temperature yesterday: 86 °F (at 4:53 PM)
Minimum temperature yesterday: 70 °F (at 12:53 AM)
Average temperature yesterday: 77 °F

Past Weeks' High & Low Weather Summary

 TemperatureHumidityPressure
High101 °F (Sep 10, 3:53 PM)90% (Sep 12, 11:53 AM)30.27 "Hg (Sep 12, 11:53 AM)
Low56 °F (Sep 13, 7:53 AM)29% (Sep 9, 4:53 PM)29.70 "Hg (Sep 10, 5:53 PM)
Average80 °F64%29.99 "Hg
* Reported Sep 1 11:53 AM — Sep 16 11:53 AM, Arlington, Weather by CustomWeather, © 2014

Note: Actual official high and low records may vary slightly from our data, if they occured in-between our weather recording intervals... More about our weather records

Advertising

Arlington weather history for previous 24 hours

 ConditionsComfort  
Time TempWeatherWind HumidityBarometerVisibility
11:53 AM
Sep 16
84 °FPartly sunny.5 mph63%30.09 "Hg10 mi
10:53 AM82 °FSunny.3 mph67%30.10 "Hg10 mi
9:53 AM79 °FSunny.No wind72%30.10 "Hg10 mi
8:53 AM78 °FSunny.5 mph76%30.09 "Hg10 mi
7:53 AM74 °FPassing clouds.3 mph85%30.09 "Hg10 mi
6:53 AM73 °FPassing clouds.No wind88%30.08 "Hg10 mi
5:53 AM73 °FClear.No wind88%30.07 "Hg10 mi
4:53 AM74 °FPassing clouds.No wind85%30.07 "Hg10 mi
3:53 AM74 °FOvercast.No wind85%30.07 "Hg10 mi
2:53 AM74 °FPassing clouds.3 mph85%30.08 "Hg10 mi
1:53 AM76 °FOvercast.3 mph77%30.09 "Hg10 mi
12:53 AM77 °FOvercast.No wind77%30.09 "Hg10 mi
11:53 PM
Sep 15
77 °FPassing clouds.No wind79%30.10 "Hg10 mi
10:53 PM78 °FPassing clouds.No wind71%30.10 "Hg10 mi
9:53 PM79 °FPassing clouds.5 mph72%30.09 "Hg10 mi
8:53 PM81 °FClear.5 mph65%30.07 "Hg10 mi
7:53 PM82 °FSunny.3 mph63%30.06 "Hg10 mi
6:53 PM85 °FPassing clouds.5 mph53%30.06 "Hg10 mi
5:53 PM85 °FSunny.6 mph53%30.06 "Hg10 mi
4:53 PM86 °FSunny.No wind51%30.05 "Hg10 mi
3:53 PM85 °FSunny.No wind53%30.06 "Hg10 mi
2:53 PM83 °FLight rain. Passing clouds.3 mph57%30.08 "Hg10 mi
1:53 PM82 °FLight rain. Partly sunny.5 mph60%30.09 "Hg10 mi
Weather by CustomWeather, © 2014

See weather overviewHow to use our weather pages